TimeCST,TemperatureF,Dew PointF,Humidity,Sea Level PressureIn,VisibilityMPH,Wind Direction,Wind SpeedMPH,Gust SpeedMPH,PrecipitationIn,Events,Conditions,WindDirDegrees,DateUTC
12:00 AM,74,72,91,30.01,12,Calm,Calm,,,,Scattered Clouds,,2014-02-07 06:00:00
3:00 AM,72,71,95,29.97,12,Calm,Calm,,,,Scattered Clouds,,2014-02-07 09:00:00
5:00 AM,73.4,71.6,94,29.95,6.2,Calm,Calm,-,N/A,,Partly Cloudy,0,2014-02-07 11:00:00
6:00 AM,71,70,95,29.99,12,Calm,Calm,,,,Scattered Clouds,,2014-02-07 12:00:00
6:00 AM,71.6,69.8,94,29.98,6.2,Calm,Calm,-,N/A,,Partly Cloudy,0,2014-02-07 12:00:00
7:00 AM,71.6,69.8,94,30.01,6.2,Calm,Calm,-,N/A,,Scattered Clouds,0,2014-02-07 13:00:00
8:00 AM,80.6,75.2,84,30.01,6.2,Calm,Calm,-,N/A,,Partly Cloudy,0,2014-02-07 14:00:00
9:00 AM,81,72,69,30.05,14,ESE,4.6,,,,Partly Cloudy,110,2014-02-07 15:00:00
9:00 AM,80.6,73.4,79,30.04,6.2,ESE,4.6,-,N/A,,Scattered Clouds,110,2014-02-07 15:00:00
10:00 AM,82.4,71.6,70,30.05,6.2,ESE,4.6,-,N/A,,Scattered Clouds,110,2014-02-07 16:00:00
11:00 AM,80.6,73.4,79,30.04,6.2,ESE,3.5,-,N/A,,Scattered Clouds,110,2014-02-07 17:00:00
12:00 PM,82,73,67,30.03,14,ESE,5.8,,,Rain,Light Rain Showers,110,2014-02-07 18:00:00
12:00 PM,82.4,73.4,74,30.02,6.2,ESE,5.8,-,N/A,,Scattered Clouds,110,2014-02-07 18:00:00
1:00 PM,84.2,73.4,70,29.99,6.2,ENE,6.9,-,N/A,,Scattered Clouds,70,2014-02-07 19:00:00
2:00 PM,82.4,73.4,74,29.96,6.2,East,6.9,-,N/A,,Scattered Clouds,90,2014-02-07 20:00:00
3:00 PM,80,73,74,29.96,14,East,4.6,,,,Partly Cloudy,100,2014-02-07 21:00:00
3:00 PM,80.6,73.4,79,29.96,6.2,East,4.6,-,N/A,,Scattered Clouds,100,2014-02-07 21:00:00
4:00 PM,80.6,73.4,79,29.96,6.2,East,5.8,-,N/A,,Scattered Clouds,100,2014-02-07 22:00:00
5:00 PM,80.6,71.6,74,29.95,6.2,East,8.1,-,N/A,,Partly Cloudy,100,2014-02-07 23:00:00
6:00 PM,79,73,78,29.99,12,East,3.5,,,,Scattered Clouds,100,2014-02-08 00:00:00
6:00 PM,78.8,73.4,83,29.98,6.2,East,3.5,-,N/A,,Partly Cloudy,100,2014-02-08 00:00:00
7:00 PM,78.8,73.4,83,29.98,6.2,East,3.5,-,N/A,,Partly Cloudy,100,2014-02-08 01:00:00
9:00 PM,75,72,88,30.03,12,ESE,2.3,,,,Scattered Clouds,110,2014-02-08 03:00:00